Miscellaneous Local Product
Issued by NWS Hastings, NE

Home | Current Version | Previous Version | Text Only | Print | Product List | Glossary Off
Versions: 1 2 3 4 5 6 7 8 9 10 11 12 13 14 15 16 17 18 19 20 21 22 23 24 25 26 27 28 29 30 31 32 33 34 35 36 37 38 39 40 41 42 43 44 45 46 47 48 49 50

000
AXUS43 KGID 160902
MISGRI

GID CWA HOURLY WEATHER ROUNDUP
NATIONAL WEATHER SERVICE HASTINGS NE
400 AM CDT WED APR 16 2014

NOTE: "FAIR" INDICATES FEW OR NO CLOUDS BELOW 12,000 FEET WITH NO
SIGNIFICANT WEATHER AND/OR OBSTRUCTIONS TO VISIBILITY.

...SOUTH CENTRAL NEBRASKA...

CITY           SKY/WX    TMP DP  RH WIND       PRES   REMARKS
GRAND ISLAND   MOCLDY    48  23  37 S23G30    29.64F
HASTINGS       PTCLDY    47  22  37 S16G22    29.65F
ORD            MOCLDY    47  24  40 S23       29.57F
YORK           MOCLDY    45  23  42 S20G26    29.68F
AURORA         PTCLDY    46  23  40 S15G23    29.66F
LEXINGTON      CLOUDY    47  25  41 S17       29.58F
HOLDREGE       CLOUDY    46  24  43 S16       29.61F
HEBRON         CLEAR     47  18  30 S21G28    29.72F

...NEBRASKA PANHANDLE...

CITY           SKY/WX    TMP DP  RH WIND       PRES   REMARKS
CHADRON        LGT RAIN  43  39  86 N8        29.64R
ALLIANCE       CLOUDY    45  33  63 NW17      29.60R
SCOTTSBLUFF    CLOUDY    44  35  70 NW24G35   29.67R
SIDNEY         MOCLDY    50  29  44 W35G41    29.64F

...WESTERN AND NORTH CENTRAL NEBRASKA...

CITY           SKY/WX    TMP DP  RH WIND       PRES   REMARKS
VALENTINE      CLOUDY    53  30  41 NW13G20   29.51R
AINSWORTH      CLOUDY    57  33  39 SW20G28   29.51S
ONEILL         CLOUDY    51  25  36 S16       29.55F
BROKEN BOW     CLOUDY    46  27  47 S9        29.58S
IMPERIAL       MOCLDY    40  28  62 W13       29.61R WCI  32
NORTH PLATTE   MOCLDY    47  27  45 W8        29.61R
MCCOOK         CLOUDY    49  22  34 SW15      29.58F

...EASTERN NEBRASKA...

CITY           SKY/WX    TMP DP  RH WIND       PRES   REMARKS
NORFOLK        CLOUDY    49  22  34 S24G35    29.61F
SO SIOUX CITY  CLOUDY    48  29  47 SE16      29.68F
TEKAMAH        CLOUDY    47  29  49 S21       29.73F
COLUMBUS       CLOUDY    48  21  34 S22G29    29.66F
ALBION         CLOUDY    46  25  43 S17       29.62S
OMAHA EPPLEY   CLOUDY    45  29  53 S24G32    29.78F
OFFUTT AFB     MOCLDY    43  32  65 SE13      29.80F
MILLARD        MOCLDY    44  29  54 SE12G18   29.78F
LINCOLN        MOCLDY    48  24  39 S20       29.74F
NEBRASKA CITY  PTCLDY    45  29  53 S22       29.82F
BEATRICE       PTCLDY    48  24  38 S20G26    29.77S
FALLS CITY     CLEAR     46  29  51 S18G26    29.86F

...NORTHERN KANSAS...

CITY           SKY/WX    TMP DP  RH WIND       PRES   REMARKS
GOODLAND       MOCLDY    42  25  50 SW10      29.61F
HILL CITY      PTCLDY    48  17  29 S10       29.65F
PHILLIPSBURG   CLEAR     50  18  27 S17G23    29.65F
SMITH CENTER   CLEAR     48  18  29 S20       29.70S
BELOIT         CLEAR     50  18  27 S16G25    29.71F
HAYS           CLEAR     46  18  31 S16G22    29.70F
RUSSELL        CLEAR     49  16  26 S28G38    29.69F
CONCORDIA      CLEAR     49  18  29 S22G29    29.74F
SALINA         CLEAR     50  19  29 S24G32    29.79F
TOPEKA         CLEAR     47  27  45 S12       29.92F



USA.gov is the U.S. government's official web portal to all federal, state and local government web resources and services.